GW7358 Weather Reports


Display with metric or nautical units.
time (UTC)temp
F
wind
direction
speed
MPH
gust
MPH
rain 1hr
in
rain 24hr
in
rain mn
in
humidity
%
barometer
mb
20260504050508 53 202 1.0 4.0 0.00 0.00 0.00 62 1022.1
20260504050004 53 194 2.0 3.0 0.00 0.00 0.00 63 1022.1
20260504045500 52 162 2.0 4.0 0.00 0.00 0.00 63 1022.1
20260504044957 52 170 2.0 4.0 0.00 0.00 0.00 64 1021.8
20260504044454 52 51 3.0 3.0 0.00 0.00 0.00 65 1021.7
20260504043952 52 180 0.0 3.0 0.00 0.00 0.00 66 1021.7
20260504043449 52 153 3.0 4.0 0.00 0.00 0.00 66 1021.7
20260504042946 52 186 3.0 4.0 0.00 0.00 0.00 67 1021.7
20260504042443 51 187 2.0 3.0 0.00 0.00 0.00 68 1021.8
20260504041940 51 116 1.0 3.0 0.00 0.00 0.00 68 1021.6
20260504041436 51 152 3.0 4.0 0.00 0.00 0.00 69 1021.7
20260504040931 51 186 2.0 4.0 0.00 0.00 0.00 70 1021.8
20260504040430 51 95 2.0 3.0 0.00 0.00 0.00 71 1021.7
20260504035925 51 171 0.0 2.0 0.00 0.00 0.00 71 1021.7
20260504035423 51 185 2.0 2.0 0.00 0.00 0.00 71 1021.6
20260504034919 51 142 1.0 4.0 0.00 0.00 0.00 72 1021.7
20260504034417 50 4 2.0 3.0 0.00 0.00 0.00 72 1021.6
20260504033914 50 25 1.0 3.0 0.00 0.00 0.00 72 1021.6
20260504033412 50 59 1.0 2.0 0.00 0.00 0.00 72 1021.6
20260504032908 50 104 1.0 3.0 0.00 0.00 0.00 72 1021.7
20260504032405 50 229 2.0 3.0 0.00 0.00 0.00 71 1021.6
20260504031902 50 37 2.0 3.0 0.00 0.00 0.00 71 1021.5
20260504031359 50 149 0.0 2.0 0.00 0.00 0.00 70 1021.7
20260504030855 50 38 0.0 2.0 0.00 0.00 0.00 70 1021.5
20260504030353 50 199 2.0 2.0 0.00 0.00 0.00 70 1021.5
20260504025849 50 323 0.0 2.0 0.00 0.00 0.00 70 1021.6
20260504025346 50 197 0.0 2.0 0.00 0.00 0.00 70 1021.5
20260504024842 50 135 2.0 3.0 0.00 0.00 0.00 70 1021.4
20260504024338 50 264 2.0 3.0 0.00 0.00 0.00 70 1021.5
20260504023836 50 179 2.0 2.0 0.00 0.00 0.00 70 1021.4
20260504023333 50 209 1.0 2.0 0.00 0.00 0.00 69 1021.3
20260504022828 50 268 0.0 3.0 0.00 0.00 0.00 69 1021.3
20260504022326 50 250 2.0 4.0 0.00 0.00 0.00 69 1021.3
20260504021822 50 182 3.0 3.0 0.00 0.00 0.00 69 1021.4
20260504021320 50 79 2.0 3.0 0.00 0.00 0.00 69 1021.2
20260504020816 51 199 2.0 4.0 0.00 0.00 0.00 68 1021.1
20260504020313 50 125 3.0 3.0 0.00 0.00 0.00 68 1021.3
20260504015809 50 6 2.0 2.0 0.00 0.00 0.00 68 1021.3
20260504015305 51 78 2.0 3.0 0.00 0.00 0.00 67 1021.1
20260504014801 51 145 2.0 3.0 0.00 0.00 0.00 67 1021.2
20260504014257 51 109 1.0 3.0 0.00 0.00 0.00 66 1021.2
20260504013755 51 127 2.0 3.0 0.00 0.00 0.00 65 1021.1
20260504013253 51 49 2.0 3.0 0.00 0.00 0.00 65 1021.1
20260504012749 51 108 2.0 3.0 0.00 0.00 0.00 65 1021.0
20260504012247 51 219 0.0 3.0 0.00 0.00 0.00 65 1021.0
20260504011744 51 105 1.0 3.0 0.00 0.00 0.00 65 1021.1
20260504011241 51 177 2.0 3.0 0.00 0.00 0.00 64 1021.1
20260504010737 51 208 0.0 2.0 0.00 0.00 0.00 64 1021.0
20260504010232 51 174 2.0 3.0 0.00 0.00 0.00 63 1020.9
20260504005729 51 240 2.0 3.0 0.00 0.00 0.00 63 1020.8
20260504005227 51 13 1.0 3.0 0.00 0.00 0.00 63 1020.9
20260504004724 51 188 1.0 2.0 0.00 0.00 0.00 62 1020.7
20260504004221 51 168 0.0 4.0 0.00 0.00 0.00 63 1020.8
20260504003718 51 30 2.0 3.0 0.00 0.00 0.00 63 1020.8
20260504003215 51 189 1.0 3.0 0.00 0.00 0.00 62 1020.8
20260504002711 51 156 2.0 2.0 0.00 0.00 0.00 63 1020.8
20260504002208 51 121 2.0 3.0 0.00 0.00 0.00 63 1021.0
20260504001706 51 127 0.0 3.0 0.00 0.00 0.00 63 1020.7
20260504001202 51 160 0.0 4.0 0.00 0.00 0.00 63 1020.9
20260504000659 51 233 2.0 4.0 0.00 0.00 0.00 62 1021.0
20260504000156 51 91 2.0 3.0 0.00 0.00 0.00 61 1021.0
20260503235655 51 180 1.0 3.0 0.00 0.00 0.00 60 1021.0
20260503235151 51 168 0.0 3.0 0.00 0.00 0.00 59 1021.1
20260503234649 51 160 2.0 3.0 0.00 0.00 0.00 59 1021.0
20260503234147 51 64 1.0 3.0 0.00 0.00 0.00 58 1021.1
20260503233644 51 178 2.0 3.0 0.00 0.00 0.00 57 1021.0
20260503233139 51 175 1.0 3.0 0.00 0.00 0.00 56 1021.3
20260503232636 52 64 2.0 3.0 0.00 0.00 0.00 57 1021.3
20260503232134 52 195 2.0 3.0 0.00 0.00 0.00 55 1021.2
20260503231632 51 43 1.0 4.0 0.00 0.00 0.00 56 1021.3
20260503231128 51 194 2.0 3.0 0.00 0.00 0.00 56 1021.3
20260503230625 51 173 1.0 3.0 0.00 0.00 0.00 56 1021.2
20260503230122 51 93 1.0 2.0 0.00 0.00 0.00 56 1021.4
20260503225620 52 210 1.0 3.0 0.00 0.00 0.00 56 1021.4
20260503225119 52 61 1.0 3.0 0.00 0.00 0.00 57 1021.3
20260503224617 52 9 0.0 3.0 0.00 0.00 0.00 57 1021.3
20260503224115 52 147 2.0 3.0 0.00 0.00 0.00 57 1021.3
20260503223612 52 21 0.0 3.0 0.00 0.00 0.00 56 1021.3
20260503223108 52 174 2.0 4.0 0.00 0.00 0.00 57 1021.3
20260503222606 52 193 2.0 3.0 0.00 0.00 0.00 57 1021.4
20260503222103 52 176 2.0 4.0 0.00 0.00 0.00 58 1021.3
20260503221601 52 167 2.0 4.0 0.00 0.00 0.00 58 1021.4
20260503221059 52 124 2.0 2.0 0.00 0.00 0.00 60 1021.3
20260503220555 52 176 2.0 4.0 0.00 0.00 0.00 60 1021.2
20260503220052 52 167 3.0 4.0 0.00 0.00 0.00 58 1021.3
20260503215549 52 172 0.0 3.0 0.00 0.00 0.00 56 1021.4
20260503215046 52 139 2.0 3.0 0.00 0.00 0.00 55 1021.4
20260503214544 52 194 3.0 3.0 0.00 0.00 0.00 56 1021.4
20260503214040 52 133 1.0 3.0 0.00 0.00 0.00 56 1021.3
20260503213538 53 163 2.0 3.0 0.00 0.00 0.00 56 1021.3
20260503213035 53 171 2.0 4.0 0.00 0.00 0.00 55 1021.4
20260503212533 53 104 3.0 3.0 0.00 0.00 0.00 55 1021.5
20260503212030 53 228 3.0 3.0 0.00 0.00 0.00 56 1021.5
20260503211527 53 151 2.0 4.0 0.00 0.00 0.00 56 1021.4
20260503211022 53 141 1.0 3.0 0.00 0.00 0.00 57 1021.3
20260503210519 53 164 1.0 3.0 0.00 0.00 0.00 58 1021.4
20260503210015 53 161 2.0 2.0 0.00 0.00 0.00 58 1021.4
20260503205512 53 175 2.0 3.0 0.00 0.00 0.00 59 1021.4
20260503205008 53 176 1.0 3.0 0.00 0.00 0.00 60 1021.2
20260503204506 53 190 1.0 3.0 0.00 0.00 0.00 61 1021.3
20260503204002 53 182 2.0 2.0 0.00 0.00 0.00 61 1021.3
20260503203459 53 136 2.0 3.0 0.00 0.00 0.00 61 1021.3
20260503202956 53 186 2.0 4.0 0.00 0.00 0.00 62 1021.5
20260503202454 53 91 2.0 4.0 0.00 0.00 0.00 62 1021.3
20260503201952 52 169 2.0 4.0 0.00 0.00 0.00 63 1021.4
20260503201450 52 162 2.0 3.0 0.00 0.00 0.00 64 1021.2
20260503200947 52 86 2.0 3.0 0.00 0.00 0.00 63 1021.3
20260503200443 52 93 2.0 3.0 0.00 0.00 0.00 63 1021.2
20260503195940 52 78 0.0 3.0 0.00 0.00 0.00 66 1021.1
20260503195437 52 165 2.0 4.0 0.00 0.00 0.00 64 1021.1
20260503194933 52 220 0.0 3.0 0.00 0.00 0.00 62 1021.0
20260503194431 52 55 3.0 3.0 0.00 0.00 0.00 62 1020.9
20260503193926 52 87 2.0 3.0 0.00 0.00 0.00 62 1020.6
20260503193422 52 197 2.0 2.0 0.00 0.00 0.00 62 1020.7
20260503192917 53 184 1.0 3.0 0.00 0.00 0.00 62 1020.6
20260503192414 53 171 2.0 3.0 0.00 0.00 0.00 61 1020.9
20260503191910 53 24 2.0 2.0 0.00 0.00 0.00 61 1020.9
20260503191408 53 186 2.0 4.0 0.00 0.00 0.00 61 1020.9
20260503190903 53 178 2.0 2.0 0.00 0.00 0.00 61 1020.8
20260503190401 54 43 2.0 3.0 0.00 0.00 0.00 62 1020.7
20260503185858 54 193 2.0 2.0 0.00 0.00 0.00 64 1020.6
20260503185354 54 161 0.0 3.0 0.00 0.00 0.00 65 1020.7
20260503184854 55 192 2.0 3.0 0.00 0.00 0.00 65 1020.8
20260503184350 55 189 3.0 3.0 0.00 0.00 0.00 64 1020.8
20260503183846 55 35 2.0 3.0 0.00 0.00 0.00 66 1020.7
20260503183343 55 164 3.0 3.0 0.00 0.00 0.00 66 1020.5
20260503182841 55 146 2.0 3.0 0.00 0.00 0.00 66 1020.5
20260503182340 54 162 2.0 4.0 0.00 0.00 0.00 67 1020.3
20260503181837 54 183 2.0 4.0 0.00 0.00 0.00 68 1020.4
20260503181333 54 133 1.0 4.0 0.00 0.00 0.00 69 1020.4
20260503180830 54 178 3.0 3.0 0.00 0.00 0.00 70 1020.1
20260503180328 54 147 1.0 4.0 0.00 0.00 0.00 72 1020.3
20260503175824 54 143 2.0 4.0 0.00 0.00 0.00 73 1019.9
20260503175322 54 183 3.0 3.0 0.00 0.00 0.00 74 1019.9
20260503174817 54 176 2.0 3.0 0.00 0.00 0.00 74 1019.7
20260503174316 55 198 2.0 3.0 0.00 0.00 0.00 74 1019.7
20260503173811 55 152 0.0 2.0 0.00 0.00 0.00 75 1019.6
20260503173307 55 181 2.0 3.0 0.00 0.00 0.00 74 1019.5
20260503172804 56 189 2.0 2.0 0.00 0.00 0.00 75 1019.3
20260503172304 57 163 0.0 2.0 0.00 0.00 0.00 73 1019.2
20260503171758 58 193 1.0 2.0 0.00 0.00 0.00 71 1019.0
20260503171255 59 224 0.0 2.0 0.00 0.00 0.00 68 1018.8
20260503170752 60 200 0.0 4.0 0.00 0.00 0.00 66 1018.9
20260503170249 61 220 0.0 2.0 0.00 0.00 0.00 64 1018.7
20260503160210 63 212 0.0 2.0 0.00 0.00 0.00 54 1017.8
20260503150641 60 8 4.0 7.0 0.00 0.00 0.00 54 1017.4
20260503150136 59 341 1.0 5.0 0.00 0.00 0.00 60 1017.4
20260503131030 53 159 2.0 2.0 0.00 0.00 0.00 87 1017.3
20260503130528 53 145 2.0 4.0 0.00 0.00 0.00 84 1017.3
20260503110418 65 195 8.0 9.0 0.00 0.00 0.00 49 1016.4
20260503090309 62 204 5.0 9.0 0.00 0.00 0.00 54 1017.2
20260503081242 63 197 6.0 10.0 0.00 0.00 0.00 50 1017.0
20260503080738 62 177 4.0 9.0 0.00 0.00 0.00 52 1017.1
20260503080236 63 192 6.0 11.0 0.00 0.00 0.00 51 1017.2
20260503072712 62 219 4.0 7.0 0.00 0.00 0.00 47 1017.6
20260503072209 61 235 5.0 7.0 0.00 0.00 0.00 46 1017.6
20260503071706 61 200 3.0 6.0 0.00 0.00 0.00 48 1017.7
20260503071203 61 202 5.0 7.0 0.00 0.00 0.00 47 1017.7
20260503070659 62 191 6.0 7.0 0.00 0.00 0.00 46 1017.7
20260503070157 61 211 2.0 4.0 0.00 0.00 0.00 47 1017.8